Location: 22
(39.7117°N, 89.5929°W)
Time: 10:18:54
(UTC-05:00)

Transit 2A - Pass Details

Date: 05 August 2024
Orbit: 590 x 961 km, 66.7° (Epoch: 13 September)

Event Time Altitude Azimuth Distance (km) Brightness Sun altitude
Rises 11:53:19 0° 342° (NNW) 3,622 9.2 62.3°
Reaches altitude 10° 11:58:28 10° 18° (NNE) 2,701 8.8 62.9°
Maximum altitude 12:00:03 11° 32° (NNE) 2,636 8.8 63.1°
Drops below altitude 10° 12:01:37 10° 47° (NE) 2,699 8.9 63.2°
Sets 12:06:43 0° 82° (E) 3,612 9.6 63.8°
